GW2005 Weather Reports


Display with metric or nautical units.
time (UTC)temp
F
wind
direction
speed
MPH
gust
MPH
rain 1hr
in
rain 24hr
in
rain mn
in
humidity
%
barometer
mb
20260507205124 60 192 2.0 9.0 0.00 0.19 0.16 71 1009.2
20260507204624 60 235 2.0 8.0 0.00 0.19 0.16 70 1009.2
20260507204124 60 209 3.0 8.0 0.00 0.19 0.16 71 1009.4
20260507203624 60 222 3.0 8.0 0.00 0.19 0.16 69 1009.5
20260507203124 60 107 3.0 8.0 0.00 0.19 0.16 70 1009.5
20260507202622 60 208 3.0 8.0 0.00 0.19 0.16 70 1009.6
20260507202354 60 234 2.0 6.0 0.00 0.19 0.16 72 1009.7
20260507201623 60 205 3.0 9.0 0.00 0.19 0.16 72 1009.7
20260507201354 60 142 3.0 9.0 0.00 0.19 0.16 71 1009.5
20260507200623 60 181 3.0 7.0 0.00 0.19 0.16 70 1009.5
20260507200123 59 161 3.0 8.0 0.00 0.19 0.16 72 1009.6
20260507195625 59 213 3.0 8.0 0.00 0.19 0.16 69 1009.7
20260507195124 59 166 3.0 8.0 0.00 0.19 0.16 72 1009.7
20260507194622 59 202 2.0 7.0 0.00 0.19 0.16 71 1009.9
20260507194122 58 148 2.0 5.0 0.00 0.19 0.16 71 1009.9
20260507193623 58 213 2.0 6.0 0.00 0.19 0.16 71 1010.0
20260507193123 58 234 1.0 6.0 0.01 0.19 0.16 72 1009.9
20260507192621 58 57 1.0 3.0 0.01 0.19 0.16 71 1010.0
20260507192116 58 57 1.0 4.0 0.01 0.19 0.16 72 1010.4
20260507191616 58 213 1.0 6.0 0.01 0.19 0.16 73 1010.5
20260507191115 58 270 2.0 6.0 0.01 0.19 0.16 71 1010.4
20260507190615 58 215 1.0 5.0 0.01 0.19 0.16 74 1010.5
20260507190115 57 319 1.0 3.0 0.01 0.19 0.16 79 1010.3
20260507185614 57 43 1.0 3.0 0.01 0.19 0.16 79 1010.3
20260507185111 56 122 1.0 2.0 0.01 0.19 0.16 81 1010.3
20260507184603 56 181 1.0 3.0 0.01 0.19 0.16 80 1010.6
20260507184104 55 126 1.0 3.0 0.01 0.19 0.16 83 1010.6
20260507183604 55 144 1.0 3.0 0.01 0.19 0.16 85 1010.7
20260507183104 55 66 0.0 2.0 0.00 0.18 0.15 85 1010.4
20260507182604 55 134 0.0 2.0 0.00 0.18 0.15 80 1010.9
20260507182103 55 134 0.0 2.0 0.00 0.18 0.15 78 1011.1
20260507181603 55 139 1.0 2.0 0.00 0.18 0.15 80 1011.0
20260507181104 55 137 0.0 2.0 0.00 0.18 0.15 82 1011.0
20260507180601 55 124 0.0 2.0 0.00 0.18 0.15 82 1010.9
20260507175602 56 149 0.0 3.0 0.00 0.18 0.15 75 1011.1
20260507174833 56 164 0.0 3.0 0.00 0.18 0.15 76 1011.2
20260507174059 56 188 0.0 2.0 0.00 0.18 0.15 80 1011.0
20260507173829 55 131 0.0 2.0 0.00 0.18 0.15 80 1011.1
20260507173048 55 138 0.0 2.0 0.00 0.18 0.15 78 1011.1
20260507172541 55 332 1.0 2.0 0.00 0.18 0.15 74 1011.3
20260507172035 55 25 1.0 2.0 0.00 0.18 0.15 74 1011.3
20260507171525 55 25 1.0 3.0 0.00 0.18 0.15 79 1011.4
20260507171250 55 93 1.0 3.0 0.00 0.18 0.15 80 1011.4
20260507170514 54 103 1.0 3.0 0.01 0.18 0.15 80 1011.4
20260507170004 53 22 1.0 2.0 0.02 0.18 0.15 81 1011.6
20260507165458 53 26 1.0 3.0 0.02 0.18 0.15 85 1011.7
20260507164951 53 26 1.0 3.0 0.02 0.18 0.15 84 1011.7
20260507164437 53 27 1.0 3.0 0.02 0.18 0.15 83 1011.8
20260507164203 53 26 1.0 2.0 0.02 0.18 0.15 84 1011.9
20260507163424 53 27 0.0 2.0 0.02 0.18 0.15 88 1011.9
20260507162915 52 27 0.0 2.0 0.02 0.18 0.15 86 1011.9
20260507162409 52 27 0.0 2.0 0.02 0.18 0.15 84 1012.3
20260507161903 52 27 0.0 2.0 0.02 0.18 0.15 84 1012.4
20260507161349 53 53 0.0 2.0 0.02 0.18 0.15 84 1012.6
20260507161113 53 53 1.0 2.0 0.02 0.18 0.15 82 1012.6
20260507160339 54 58 1.0 2.0 0.01 0.17 0.14 78 1012.6
20260507155840 54 58 1.0 2.0 0.00 0.16 0.13 74 1012.2
20260507155610 54 40 1.0 4.0 0.00 0.16 0.13 73 1012.7
20260507154839 55 40 1.0 4.0 0.00 0.16 0.13 72 1012.3
20260507154337 55 36 1.0 3.0 0.00 0.16 0.13 74 1012.2
20260507154109 55 42 1.0 3.0 0.00 0.16 0.13 75 1012.1
20260507153338 54 48 1.0 3.0 0.00 0.16 0.13 76 1012.2
20260507152837 54 46 1.0 4.0 0.00 0.16 0.13 74 1012.2
20260507152336 54 46 1.0 4.0 0.00 0.16 0.13 76 1012.1
20260507151835 54 46 1.0 4.0 0.00 0.16 0.13 77 1012.2
20260507151335 54 42 1.0 4.0 0.00 0.16 0.13 76 1012.3
20260507150834 54 109 1.0 3.0 0.00 0.16 0.13 77 1012.3
20260507150336 54 62 1.0 3.0 0.00 0.16 0.13 78 1012.5
20260507145832 53 57 2.0 5.0 0.00 0.16 0.13 77 1012.3
20260507145327 53 45 2.0 5.0 0.00 0.16 0.13 77 1012.4
20260507144821 53 44 2.0 4.0 0.00 0.16 0.13 79 1012.3
20260507144311 53 44 2.0 4.0 0.00 0.16 0.13 78 1012.7
20260507143805 53 44 1.0 4.0 0.00 0.16 0.13 78 1012.6
20260507142749 53 52 1.0 4.0 0.00 0.16 0.13 81 1012.8
20260507142243 53 44 1.0 3.0 0.00 0.16 0.13 82 1012.9
20260507142009 53 44 2.0 4.0 0.00 0.16 0.13 82 1012.9
20260507141453 53 44 2.0 4.0 0.00 0.16 0.13 81 1012.8
20260507140717 54 46 1.0 3.0 0.00 0.17 0.13 83 1012.9
20260507140211 54 43 1.0 5.0 0.00 0.17 0.13 84 1013.0
20260507135701 54 43 1.0 5.0 0.00 0.17 0.13 83 1013.1
20260507135155 54 43 1.0 3.0 0.00 0.17 0.13 85 1013.1
20260507134649 54 43 1.0 2.0 0.00 0.17 0.13 85 1013.1
20260507134139 54 43 1.0 3.0 0.00 0.18 0.13 86 1013.1
20260507133639 54 43 2.0 3.0 0.00 0.20 0.13 86 1012.9
20260507133140 54 74 1.0 4.0 0.00 0.20 0.13 88 1013.0
20260507132639 54 40 1.0 4.0 0.00 0.21 0.13 88 1012.9
20260507132138 54 40 2.0 4.0 0.00 0.21 0.13 88 1013.0
20260507131637 54 40 2.0 4.0 0.00 0.21 0.13 88 1013.0
20260507131137 54 40 2.0 3.0 0.00 0.21 0.13 89 1012.9
20260507130635 54 40 2.0 4.0 0.00 0.21 0.13 88 1012.8
20260507130134 54 40 2.0 4.0 0.00 0.22 0.13 88 1012.8
20260507125632 54 39 2.0 4.0 0.00 0.22 0.13 89 1012.7
20260507125131 54 46 2.0 4.0 0.00 0.22 0.13 90 1012.8
20260507124632 54 44 1.0 4.0 0.00 0.23 0.13 91 1012.9
20260507124129 54 39 1.0 3.0 0.00 0.23 0.13 90 1012.9
20260507123630 54 49 1.0 3.0 0.00 0.23 0.13 91 1012.9
20260507123129 53 49 1.0 4.0 0.00 0.23 0.13 92 1012.8
20260507122627 53 49 2.0 4.0 0.00 0.24 0.13 91 1012.7
20260507122121 53 48 2.0 4.0 0.00 0.24 0.13 91 1012.6
20260507121621 53 42 2.0 4.0 0.00 0.25 0.13 91 1012.3
20260507121352 53 42 2.0 4.0 0.00 0.25 0.13 92 1012.4
20260507120854 53 42 2.0 4.0 0.00 0.25 0.13 92 1012.5
20260507120350 53 34 2.0 3.0 0.00 0.25 0.13 92 1012.4
20260507115619 53 35 1.0 3.0 0.00 0.25 0.13 94 1012.5
20260507115119 53 35 1.0 3.0 0.00 0.25 0.13 94 1012.5
20260507114618 53 35 1.0 3.0 0.00 0.25 0.13 95 1012.3
20260507114117 53 35 1.0 3.0 0.00 0.25 0.13 95 1012.3
20260507113617 53 35 0.0 2.0 0.00 0.25 0.13 95 1012.3
20260507113116 53 45 1.0 3.0 0.00 0.25 0.13 95 1012.2
20260507112613 53 45 2.0 3.0 0.00 0.25 0.13 95 1012.1
20260507112111 53 45 1.0 3.0 0.00 0.25 0.13 96 1011.9
20260507111611 53 45 1.0 3.0 0.00 0.25 0.13 96 1011.9
20260507111112 53 45 1.0 2.0 0.00 0.26 0.13 96 1012.0
20260507110604 53 45 1.0 2.0 0.00 0.26 0.13 96 1011.8
20260507110105 53 45 1.0 2.0 0.00 0.26 0.13 96 1011.7
20260507105609 53 45 0.0 2.0 0.00 0.26 0.13 96 1011.9
20260507105103 53 45 0.0 1.0 0.00 0.26 0.13 96 1011.9
20260507104603 53 45 0.0 1.0 0.00 0.26 0.13 96 1012.0
20260507104103 53 45 0.0 0.0 0.00 0.26 0.13 96 1012.1
20260507103603 53 45 0.0 1.0 0.00 0.26 0.13 96 1012.1
20260507102602 53 45 0.0 1.0 0.00 0.26 0.13 96 1011.8
20260507102103 52 45 0.0 1.0 0.00 0.26 0.13 96 1011.8
20260507101602 52 45 0.0 2.0 0.00 0.26 0.13 95 1011.8
20260507101333 52 45 1.0 2.0 0.00 0.26 0.13 96 1011.7
20260507100601 52 45 0.0 2.0 0.00 0.26 0.13 95 1011.4
20260507095602 53 45 1.0 2.0 0.00 0.26 0.13 96 1011.5
20260507095326 53 45 1.0 1.0 0.00 0.26 0.13 95 1011.4
20260507094053 53 45 0.0 1.0 0.00 0.26 0.13 95 1011.7
20260507093824 53 45 0.0 1.0 0.00 0.26 0.13 95 1011.7
20260507093053 53 45 0.0 1.0 0.00 0.26 0.13 94 1011.8
20260507092551 53 45 0.0 2.0 0.00 0.26 0.13 94 1011.6
20260507092051 53 45 1.0 2.0 0.00 0.26 0.13 94 1011.6
20260507091550 53 45 0.0 2.0 0.00 0.26 0.13 94 1011.5
20260507091049 53 45 0.0 2.0 0.00 0.26 0.13 94 1011.6
20260507090547 53 45 1.0 2.0 0.00 0.26 0.13 94 1011.4
20260507090045 53 45 1.0 3.0 0.00 0.26 0.13 94 1011.4
20260507085817 53 45 1.0 3.0 0.00 0.26 0.13 94 1011.2
20260507085313 53 45 1.0 3.0 0.00 0.26 0.13 94 1011.1
20260507084543 53 48 1.0 4.0 0.00 0.26 0.13 95 1011.1
20260507084043 53 44 1.0 4.0 0.00 0.26 0.13 95 1011.2
20260507083543 53 43 1.0 3.0 0.00 0.26 0.13 95 1011.1
20260507083043 53 43 1.0 3.0 0.00 0.26 0.13 95 1011.1
20260507082543 53 43 1.0 3.0 0.00 0.26 0.13 95 1011.2
20260507082043 53 43 1.0 2.0 0.00 0.26 0.13 96 1011.2
20260507081543 53 43 0.0 2.0 0.00 0.26 0.13 96 1011.3
20260507081042 53 43 0.0 1.0 0.00 0.26 0.13 96 1011.2
20260507080543 53 43 1.0 2.0 0.00 0.26 0.13 96 1011.3
20260507080043 53 43 1.0 2.0 0.00 0.26 0.13 96 1011.1
20260507075817 53 43 0.0 2.0 0.00 0.26 0.13 96 1011.3
20260507075043 53 43 0.0 2.0 0.00 0.26 0.13 96 1011.3
20260507074543 54 43 1.0 2.0 0.00 0.26 0.13 96 1011.2
20260507074043 54 43 1.0 3.0 0.00 0.26 0.13 95 1010.8
20260507073543 54 43 1.0 3.0 0.00 0.26 0.13 96 1010.7
20260507073042 54 43 1.0 3.0 0.00 0.26 0.13 96 1010.6
20260507072543 54 43 1.0 2.0 0.00 0.26 0.13 96 1010.5
20260507072043 54 43 1.0 4.0 0.00 0.26 0.13 96 1010.6
20260507071543 54 43 2.0 4.0 0.00 0.26 0.13 96 1010.6
20260507071043 54 47 2.0 4.0 0.00 0.26 0.13 96 1010.4
20260507070543 55 38 1.0 4.0 0.00 0.26 0.13 96 1010.4
20260507070044 55 51 1.0 3.0 0.00 0.26 0.13 97 1010.4
20260507065814 55 46 1.0 3.0 0.00 0.26 0.13 97 1010.5
20260507065315 55 46 1.0 3.0 0.00 0.26 0.13 97 1010.3
20260507064543 55 46 1.0 3.0 0.00 0.26 0.13 97 1010.5
20260507064043 56 52 1.0 3.0 0.00 0.26 0.13 97 1010.5
20260507063542 56 143 1.0 4.0 0.00 0.26 0.13 97 1010.7
20260507063043 56 63 2.0 4.0 0.00 0.26 0.13 97 1010.6
20260507062543 56 33 2.0 4.0 0.00 0.26 0.13 97 1010.2
20260507062314 56 46 2.0 4.0 0.00 0.26 0.13 97 1010.7
20260507061540 56 36 2.0 4.0 0.00 0.26 0.13 97 1010.7
20260507061040 56 36 1.0 4.0 0.01 0.26 0.13 97 1010.6
20260507060538 57 36 1.0 3.0 0.02 0.26 0.13 97 1010.9
20260507060028 57 294 1.0 4.0 0.02 0.26 0.13 97 1011.1
20260507055522 57 99 1.0 4.0 0.02 0.26 0.13 98 1010.8
20260507055020 57 221 1.0 4.0 0.04 0.26 0.13 98 1010.6
20260507054517 57 221 1.0 4.0 0.08 0.26 0.13 98 1010.9
20260507054015 57 38 2.0 4.0 0.10 0.26 0.13 98 1010.5
20260507053744 58 38 2.0 4.0 0.11 0.26 0.13 97 1010.4
20260507053010 58 36 2.0 3.0 0.11 0.26 0.13 97 1010.2
20260507052510 58 36 2.0 3.0 0.11 0.26 0.13 97 1010.2
20260507052011 58 36 2.0 3.0 0.11 0.26 0.13 97 1009.7
20260507051509 58 51 1.0 4.0 0.12 0.26 0.13 97 1009.1
20260507051239 58 46 2.0 4.0 0.11 0.25 0.12 97 1009.0
20260507050508 59 45 1.0 3.0 0.11 0.24 0.11 97 1009.9
20260507045507 59 45 1.0 5.0 0.11 0.24 0.11 97 1010.0
20260507045006 58 315 1.0 5.0 0.10 0.22 0.10 96 1009.6
20260507044504 59 94 2.0 5.0 0.06 0.17 0.05 96 1009.8
20260507044005 59 46 2.0 5.0 0.06 0.16 0.03 96 1010.5
20260507043459 60 36 2.0 5.0 0.05 0.15 0.02 96 1010.4
20260507042949 60 43 2.0 5.0 0.05 0.15 0.02 95 1010.2
20260507042448 60 63 2.0 5.0 0.05 0.15 0.02 95 1010.1
20260507041931 61 53 2.0 4.0 0.05 0.15 0.02 96 1010.1
20260507041417 62 36 1.0 4.0 0.04 0.14 0.01 96 1010.0
20260507040915 62 52 1.0 3.0 0.04 0.14 0.01 95 1009.8
20260507040414 63 40 1.0 3.0 0.03 0.13 0.00 95 1010.4
20260507035913 63 29 1.0 3.0 0.03 0.13 0.13 95 1010.5
20260507035145 63 34 1.0 4.0 0.02 0.12 0.12 94 1010.4
20260507034413 64 34 1.0 4.0 0.01 0.11 0.11 94 1010.4
20260507033913 64 26 1.0 3.0 0.00 0.10 0.10 94 1010.1
20260507033414 64 26 1.0 3.0 0.00 0.10 0.10 95 1010.1
20260507032913 64 244 0.0 2.0 0.00 0.10 0.10 94 1010.2
20260507032413 64 244 0.0 2.0 0.00 0.10 0.10 93 1009.8
20260507031913 64 244 0.0 0.0 0.00 0.10 0.10 93 1009.6
20260507031413 64 244 0.0 0.0 0.00 0.10 0.10 92 1009.5
20260507030916 64 244 0.0 1.0 0.00 0.10 0.10 92 1009.7
20260507030413 64 244 0.0 1.0 0.00 0.10 0.10 93 1009.6
20260507030159 64 244 0.0 0.0 0.00 0.10 0.10 93 1009.4
20260507025413 64 244 0.0 0.0 0.00 0.10 0.10 92 1009.6
20260507024912 64 244 0.0 0.0 0.00 0.10 0.10 92 1009.7
20260507024413 64 244 0.0 1.0 0.00 0.10 0.10 92 1009.5
20260507023914 64 244 0.0 1.0 0.00 0.10 0.10 92 1009.4
20260507023410 64 244 0.0 0.0 0.00 0.10 0.10 92 1009.6
20260507022909 64 244 0.0 0.0 0.00 0.10 0.10 92 1009.6
20260507022644 65 244 0.0 0.0 0.00 0.10 0.10 91 1009.7
20260507022140 65 244 0.0 1.0 0.00 0.10 0.10 91 1009.7
20260507021414 65 244 0.0 1.0 0.00 0.10 0.10 91 1009.5
20260507020907 65 244 0.0 1.0 0.00 0.10 0.10 90 1009.2
20260507015906 66 244 0.0 0.0 0.00 0.10 0.10 89 1008.8
20260507015401 66 244 0.0 1.0 0.00 0.10 0.10 89 1008.7
20260507014857 66 244 1.0 2.0 0.00 0.10 0.10 89 1008.8
20260507014354 66 244 1.0 2.0 0.00 0.10 0.10 89 1008.6
20260507013855 66 244 0.0 1.0 0.00 0.10 0.10 89 1008.8
20260507013355 66 244 0.0 2.0 0.00 0.10 0.10 89 1009.1
20260507012855 66 244 0.0 2.0 0.00 0.10 0.10 89 1009.2
20260507012626 66 244 0.0 1.0 0.00 0.10 0.10 89 1009.2
20260507011900 66 244 0.0 1.0 0.00 0.10 0.10 88 1009.2
20260507011352 66 244 0.0 2.0 0.00 0.10 0.10 88 1009.5
20260507010853 67 244 1.0 2.0 0.00 0.10 0.10 87 1009.5
20260507010353 67 244 1.0 3.0 0.00 0.10 0.10 86 1009.5
20260507010121 67 279 1.0 3.0 0.00 0.10 0.10 86 1009.2
20260507005349 67 239 0.0 1.0 0.00 0.10 0.10 86 1009.1
20260507004846 68 239 1.0 4.0 0.00 0.10 0.10 85 1009.1
20260507004357 68 239 3.0 5.0 0.00 0.10 0.10 85 1008.8
20260507003344 68 244 3.0 6.0 0.00 0.10 0.10 85 1008.9
20260507003119 68 204 4.0 7.0 0.00 0.10 0.10 84 1008.8
20260507002558 68 205 4.0 7.0 0.00 0.10 0.10 84 1008.7
20260507001319 69 198 1.0 4.0 0.00 0.10 0.10 84 1008.6
20260507000801 69 245 1.0 4.0 0.00 0.10 0.10 84 1008.5
20260507000254 69 221 3.0 6.0 0.00 0.10 0.10 84 1008.3
20260506235749 69 215 3.0 6.0 0.00 0.10 0.10 84 1008.3
20260506235238 69 223 3.0 6.0 0.00 0.10 0.10 83 1008.5
20260506235003 69 229 2.0 4.0 0.00 0.10 0.10 83 1008.6
20260506234227 70 211 2.0 4.0 0.00 0.10 0.10 82 1008.6
20260506233717 70 213 2.0 5.0 0.00 0.10 0.10 82 1008.7
20260506233210 70 223 3.0 9.0 0.00 0.10 0.10 82 1008.7
20260506232936 70 252 3.0 9.0 0.00 0.10 0.10 82 1008.5
20260506232156 71 248 3.0 6.0 0.00 0.10 0.10 81 1008.5
20260506231659 71 228 3.0 6.0 0.00 0.10 0.10 81 1008.4
20260506231153 71 212 3.0 9.0 0.00 0.10 0.10 81 1008.2
20260506230652 70 244 3.0 9.0 0.00 0.10 0.10 81 1008.0
20260506230153 70 242 4.0 12.0 0.00 0.10 0.10 81 1008.1
20260506225653 70 206 5.0 12.0 0.00 0.10 0.10 80 1008.1
20260506225150 71 240 5.0 10.0 0.00 0.10 0.10 80 1008.2
20260506224921 71 225 5.0 14.0 0.00 0.10 0.10 80 1008.3
20260506223148 71 206 5.0 12.0 0.00 0.10 0.10 79 1008.0
20260506222649 71 237 6.0 12.0 0.00 0.10 0.10 80 1008.2
20260506222150 71 247 6.0 14.0 0.00 0.10 0.10 79 1008.1
20260506221649 71 248 5.0 14.0 0.00 0.10 0.10 79 1008.2
20260506221143 71 250 5.0 12.0 0.00 0.10 0.10 79 1008.3
20260506220633 71 221 6.0 14.0 0.00 0.10 0.10 79 1008.3
20260506220127 71 252 6.0 14.0 0.00 0.10 0.10 78 1008.4
20260506215852 71 234 4.0 10.0 0.00 0.10 0.10 78 1008.2
20260506215111 71 318 6.0 11.0 0.00 0.10 0.10 78 1008.0
20260506214605 71 210 6.0 12.0 0.00 0.10 0.10 77 1008.1
20260506214059 71 193 5.0 12.0 0.00 0.10 0.10 78 1008.1
20260506213549 71 263 5.0 11.0 0.00 0.10 0.10 78 1008.1
20260506213042 71 236 5.0 14.0 0.00 0.10 0.10 79 1008.1
20260506212537 71 190 5.0 14.0 0.00 0.10 0.10 78 1008.0
20260506212027 71 217 5.0 13.0 0.00 0.10 0.10 79 1008.0
20260506211521 71 239 5.0 13.0 0.00 0.10 0.10 79 1008.1
20260506211027 71 309 5.0 12.0 0.00 0.10 0.10 79 1008.1
20260506210505 71 232 5.0 15.0 0.00 0.10 0.10 80 1008.1
20260506205959 71 215 5.0 15.0 0.00 0.10 0.10 79 1008.0
20260506205454 71 238 4.0 12.0 0.00 0.10 0.10 79 1008.1